Weather History for KRHP - July, 2014

Change the Weather History Date:

Monday, July 7, 2014

  Actual Average (KTYS) Record (KTYS)
Temperature  
Mean Temperature 72 °F 78 °F  
Max Temperature 84 °F 88 °F 98 °F (2010)
Min Temperature 59 °F 69 °F 55 °F (1972)
Degree Days  
Heating Degree Days 0 0  
Month to date heating degree days 0  
Since 1 June heating degree days 4  
Since 1 July heating degree days 0  
Cooling Degree Days 6 13  
Month to date cooling degree days 91  
Year to date cooling degree days 558  
Since 1 June cooling degree days 396  
Growing Degree Days 22 (Base 50)    
Moisture  
Dew Point 63 °F    
Average Humidity 80    
Maximum Humidity 100    
Minimum Humidity 52    
Precipitation  
Precipitation 0.00 in 0.16 in 2.36 in (1999)
Month to date precipitation 1.18  
Year to date precipitation 26.43  
Snow  
Snow 0.00 in 0.00 in - ()
Month to date snowfall 0.0  
Since 1 June snowfall 0.0  
Since 1 July snowfall 0.0  
Snow Depth -    
Sea Level Pressure  
Sea Level Pressure 30.09 in    
Wind  
Wind Speed 2 mph (WSW)    
Max Wind Speed 13 mph    
Max Gust Speed -    
Visibility 9 miles    
Events      
T = Trace of Precipitation, MM = Missing Value Source: NWS Daily Summary

Daily Weather History Graph

Daily Weather History Graph

Search for Another Location

Airport or City:

Trip Planner

Search our weather history database for the weather conditions in past years. The results will help you decide how hot, cold, wet, or windy it might be!

Date:

Astronomy

Jul. 07, 2014 Rise Set
Actual Time 6:27 AM EDT 8:53 PM EDT
Civil Twilight 5:58 AM EDT 9:22 PM EDT
Nautical Twilight 5:21 AM EDT 9:58 PM EDT
Astronomical Twilight 4:41 AM EDT 10:38 PM EDT
Moon 4:00 PM EDT (7/7) 2:13 AM EDT (7/7)
Length of Visible Light 15h 24m
Length of Day
14h 25m
Waxing Gibbous, 72% of the Moon is Illuminated
Jul 7
Waxing Gibbous
Jul 12
Full
Jul 18
Last Quarter
Jul 26
New
Aug 3
First Quarter

Hourly Weather History & Observations

Time (EDT) Temp. Heat Index Dew Point Humidity Pressure Visibility Wind Dir Wind Speed Gust Speed Precip Events Conditions
12:15 AM 61.3 °F - 60.4 °F 97% 30.14 in 7.0 mi Calm Calm - N/A   Clear
12:35 AM 61.5 °F - 60.1 °F 95% 30.14 in 10.0 mi Calm Calm - N/A   Clear
12:55 AM 60.4 °F - 59.5 °F 97% 30.13 in 10.0 mi Calm Calm - N/A   Clear
1:15 AM 60.3 °F - 59.7 °F 98% 30.13 in 7.0 mi Calm Calm - N/A   Clear
1:35 AM 60.4 °F - 60.1 °F 99% 30.12 in 7.0 mi Calm Calm - N/A   Clear
1:55 AM 59.9 °F - 59.2 °F 97% 30.12 in 7.0 mi Calm Calm - N/A   Scattered Clouds
2:15 AM 59.4 °F - 58.8 °F 98% 30.11 in 7.0 mi Calm Calm - N/A   Clear
2:35 AM 59.0 °F - 58.5 °F 98% 30.11 in 5.0 mi Calm Calm - N/A   Clear
2:55 AM 59.4 °F - 58.6 °F 97% 30.11 in 7.0 mi Calm Calm - N/A   Scattered Clouds
3:15 AM 59.9 °F - 59.4 °F 98% 30.11 in 7.0 mi Calm Calm - N/A   Mostly Cloudy
3:35 AM 60.6 °F - 59.9 °F 97% 30.10 in 5.0 mi Calm Calm - N/A   Overcast
3:55 AM 61.2 °F - 60.1 °F 96% 30.10 in 10.0 mi Calm Calm - N/A   Overcast
4:15 AM 61.3 °F - 60.4 °F 97% 30.10 in 7.0 mi Calm Calm - N/A   Overcast
4:35 AM 60.8 °F - 60.1 °F 97% 30.10 in 7.0 mi Calm Calm - N/A   Mostly Cloudy
4:55 AM 60.4 °F - 59.9 °F 98% 30.10 in 5.0 mi Calm Calm - N/A   Mostly Cloudy
5:15 AM 60.1 °F - 59.5 °F 98% 30.10 in 5.0 mi Calm Calm - N/A   Scattered Clouds
5:35 AM 59.9 °F - 59.4 °F 98% 30.10 in 5.0 mi Calm Calm - N/A   Scattered Clouds
5:55 AM 59.4 °F - 59.2 °F 99% 30.10 in 4.0 mi Calm Calm - N/A   Mostly Cloudy
6:15 AM 59.9 °F - 59.4 °F 98% 30.11 in 5.0 mi Calm Calm - N/A   Overcast
6:35 AM 59.4 °F - 59.0 °F 99% 30.10 in 4.0 mi Calm Calm - N/A   Scattered Clouds
6:55 AM 59.0 °F - 59.0 °F 100% 30.11 in 3.0 mi Calm Calm - N/A   Clear
7:15 AM 60.1 °F - 59.4 °F 97% 30.11 in 5.0 mi Calm Calm - N/A   Clear
7:35 AM 61.2 °F - 60.3 °F 97% 30.11 in 5.0 mi Calm Calm - N/A   Clear
7:55 AM 62.6 °F - 60.8 °F 94% 30.12 in 7.0 mi Calm Calm - N/A   Clear
8:15 AM 63.9 °F - 61.3 °F 91% 30.12 in 10.0 mi Calm Calm - N/A   Clear
8:35 AM 65.3 °F - 62.4 °F 90% 30.13 in 10.0 mi Calm Calm - N/A   Clear
8:55 AM 67.6 °F - 63.7 °F 87% 30.13 in 10.0 mi Calm Calm - N/A   Clear
9:15 AM 69.4 °F - 64.4 °F 84% 30.13 in 10.0 mi Calm Calm - N/A   Scattered Clouds
9:35 AM 71.4 °F - 64.9 °F 80% 30.13 in 10.0 mi Calm Calm - N/A   Clear
9:55 AM 73.2 °F - 65.1 °F 76% 30.12 in 10.0 mi Calm Calm - N/A   Clear
10:15 AM 75.0 °F - 66.2 °F 74% 30.12 in 10.0 mi Calm Calm - N/A   Clear
10:35 AM 76.1 °F - 66.0 °F 71% 30.12 in 10.0 mi Calm Calm - N/A   Clear
10:55 AM 77.7 °F - 67.1 °F 70% 30.11 in 10.0 mi West 6.9 mph - N/A   Clear
11:30 AM 79.3 °F - 66.7 °F 65% 30.11 in 10.0 mi West 4.6 mph - N/A   Clear
12:15 PM 80.8 °F 83.2 °F 67.1 °F 63% 30.11 in 10.0 mi WSW 6.9 mph - N/A   Scattered Clouds
12:35 PM 81.9 °F 84.2 °F 66.6 °F 60% 30.11 in 10.0 mi West 4.6 mph - N/A   Scattered Clouds
1:15 PM 82.0 °F 84.3 °F 66.4 °F 59% 30.09 in 10.0 mi WSW 6.9 mph - N/A   Clear
1:30 PM 81.5 °F 83.6 °F 65.8 °F 59% 30.09 in 10.0 mi West 5.8 mph - N/A   Mostly Cloudy
2:15 PM 82.0 °F 84.5 °F 67.1 °F 60% 30.07 in 10.0 mi West 5.8 mph - N/A   Mostly Cloudy
2:35 PM 83.1 °F 85.7 °F 66.9 °F 58% 30.06 in 10.0 mi West 5.8 mph - N/A   Scattered Clouds
2:55 PM 83.7 °F 86.2 °F 66.9 °F 57% 30.06 in 10.0 mi WSW 10.4 mph - N/A   Clear
3:15 PM 84.2 °F 86.8 °F 66.9 °F 56% 30.05 in 10.0 mi WSW 6.9 mph - N/A   Scattered Clouds
3:35 PM 84.2 °F 86.8 °F 67.1 °F 56% 30.05 in 10.0 mi West 9.2 mph - N/A   Scattered Clouds
3:55 PM 84.2 °F 86.3 °F 65.7 °F 54% 30.05 in 10.0 mi SW 8.1 mph - N/A   Scattered Clouds
4:10 PM 82.4 °F 84.1 °F 64.6 °F 55% 30.04 in 10.0 mi WSW 6.9 mph - N/A   Scattered Clouds
4:35 PM 81.9 °F 83.4 °F 64.0 °F 55% 30.04 in 10.0 mi WSW 8.1 mph - N/A   Mostly Cloudy
4:55 PM 83.8 °F 85.3 °F 64.4 °F 52% 30.04 in 10.0 mi WSW 11.5 mph - N/A   Scattered Clouds
5:15 PM 83.5 °F 84.9 °F 64.0 °F 52% 30.04 in 10.0 mi WSW 12.7 mph - N/A   Clear
5:35 PM 84.0 °F 85.8 °F 64.9 °F 53% 30.03 in 10.0 mi West 9.2 mph - N/A   Scattered Clouds
5:55 PM 82.9 °F 85.2 °F 66.2 °F 57% 30.03 in 10.0 mi WSW 9.2 mph - N/A   Scattered Clouds
6:15 PM 82.4 °F 84.2 °F 65.3 °F 56% 30.01 in 10.0 mi SW 10.4 mph - N/A   Scattered Clouds
6:55 PM 82.4 °F 83.9 °F 64.4 °F 54% 30.01 in 10.0 mi WSW 10.4 mph - N/A   Scattered Clouds
7:15 PM 81.0 °F 82.5 °F 64.0 °F 56% 30.03 in 10.0 mi WSW 11.5 mph - N/A   Scattered Clouds
7:35 PM 80.2 °F 81.8 °F 63.9 °F 57% 30.04 in 10.0 mi WSW 6.9 mph - N/A   Clear
7:55 PM 77.4 °F - 65.5 °F 67% 30.05 in 10.0 mi West 5.8 mph - N/A   Scattered Clouds
8:15 PM 74.8 °F - 66.2 °F 74% 30.06 in 10.0 mi Calm Calm - N/A   Clear
8:35 PM 73.2 °F - 66.2 °F 79% 30.07 in 10.0 mi Calm Calm - N/A   Scattered Clouds
8:55 PM 71.8 °F - 66.4 °F 83% 30.07 in 10.0 mi Calm Calm - N/A   Mostly Cloudy
9:15 PM 70.0 °F - 66.4 °F 88% 30.06 in 10.0 mi Calm Calm - N/A   Mostly Cloudy
9:35 PM 69.6 °F - 64.2 °F 83% 30.07 in 10.0 mi North 3.5 mph - N/A   Clear
9:55 PM 68.5 °F - 64.0 °F 85% 30.08 in 10.0 mi Calm Calm - N/A   Scattered Clouds
10:15 PM 66.4 °F - 63.5 °F 90% 30.09 in 10.0 mi Calm Calm - N/A   Clear
10:55 PM 64.6 °F - 62.6 °F 93% 30.09 in 10.0 mi Calm Calm - N/A   Clear
11:20 PM 64.4 °F - 62.8 °F 94% 30.09 in 10.0 mi Calm Calm - N/A   Clear
11:35 PM 63.0 °F - 61.7 °F 96% 30.09 in 7.0 mi Calm Calm - N/A   Clear